Smithville, OH

5:16 AM EDT on July 25, 2016 (GMT -0400)
Wayne County

Weather History for KBJJ - October, 2013

Change the Weather History Date:

Saturday, October 12, 2013

  Actual Average Record
Temperature  
Mean Temperature 60 °F -  
Max Temperature 73 °F 61 °F 81 °F (2008)
Min Temperature 48 °F 38 °F 30 °F (2000)
Degree Days  
Heating Degree Days 4    
Growing Degree Days 10 (Base 50)    
Moisture  
Dew Point 53 °F    
Average Humidity 78    
Maximum Humidity 93    
Minimum Humidity 59    
Precipitation  
Precipitation 0.00 in - - ()
Sea Level Pressure  
Sea Level Pressure 30.11 in    
Wind  
Wind Speed 1 mph (SSE)    
Max Wind Speed 7 mph    
Max Gust Speed -    
Visibility 10 miles    
Events      
Averages and records for this station are not official NWS values.
T = Trace of Precipitation, MM = Missing Value Source: NWS Daily Summary

Daily Weather History Graph

Daily Weather History Graph

Search for Another Location

Airport or City:

Trip Planner

Search our weather history database for the weather conditions in past years. The results will help you decide how hot, cold, wet, or windy it might be!

Date:

Astronomy

Oct. 12, 2013 Rise Set
Actual Time 7:35 AM EDT 6:51 PM EDT
Civil Twilight 7:08 AM EDT 7:18 PM EDT
Nautical Twilight 6:36 AM EDT 7:50 PM EDT
Astronomical Twilight 6:04 AM EDT 8:22 PM EDT
Moon 3:02 PM EDT (10/12) 12:35 AM EDT (10/12)
Length of Visible Light 12h 10m
Length of Day
11h 15m
First Quarter, 58% of the Moon is Illuminated
Oct 12
First Quarter
Oct 18
Full
Oct 26
Last Quarter
Nov 3
New
Nov 10
First Quarter

Hourly Weather History & Observations

Time (EDT) Temp. Dew Point Humidity Pressure Visibility Wind Dir Wind Speed Gust Speed Precip Events Conditions
12:56 AM 50.0 °F 48.0 °F 93% 30.10 in 4.0 mi Calm Calm - N/A   Clear
1:56 AM 51.1 °F 48.0 °F 89% 30.09 in 7.0 mi Calm Calm - N/A   Clear
2:56 AM 48.9 °F 46.9 °F 93% 30.09 in 8.0 mi Calm Calm - N/A   Clear
3:56 AM 48.0 °F 46.0 °F 93% 30.09 in 10.0 mi Calm Calm - N/A   Clear
4:56 AM 48.9 °F 46.0 °F 90% 30.10 in 10.0 mi Calm Calm - N/A   Clear
5:56 AM 48.0 °F 45.0 °F 89% 30.11 in 10.0 mi Calm Calm - N/A   Clear
6:56 AM 48.0 °F 46.0 °F 93% 30.12 in 10.0 mi Calm Calm - N/A   Clear
7:56 AM 48.0 °F 46.0 °F 93% 30.14 in 10.0 mi Calm Calm - N/A   Clear
8:56 AM 51.1 °F 48.0 °F 89% 30.15 in 10.0 mi Calm Calm - N/A   Clear
9:56 AM 60.1 °F 48.9 °F 67% 30.14 in 10.0 mi ESE 4.6 mph - N/A   Clear
10:56 AM 64.9 °F 52.0 °F 63% 30.14 in 10.0 mi Variable 3.5 mph - N/A   Clear
11:56 AM 68.0 °F 55.0 °F 63% 30.12 in 10.0 mi ESE 5.8 mph - N/A   Clear
12:56 PM 70.0 °F 57.0 °F 63% 30.11 in 10.0 mi SSE 4.6 mph - N/A   Mostly Cloudy
1:56 PM 73.0 °F 59.0 °F 61% 30.10 in 10.0 mi South 6.9 mph - N/A   Mostly Cloudy
2:56 PM 72.0 °F 57.9 °F 61% 30.09 in 10.0 mi South 4.6 mph - N/A   Overcast
3:56 PM 72.0 °F 59.0 °F 64% 30.09 in 10.0 mi SSW 4.6 mph - N/A   Overcast
4:56 PM 72.0 °F 59.0 °F 64% 30.09 in 10.0 mi Calm Calm - N/A   Overcast
5:56 PM 73.9 °F 59.0 °F 59% 30.09 in 10.0 mi ESE 5.8 mph - N/A   Overcast
6:56 PM 71.1 °F 59.0 °F 66% 30.11 in 10.0 mi Calm Calm - N/A   Overcast
7:56 PM 68.0 °F 60.1 °F 76% 30.12 in 10.0 mi Calm Calm - N/A   Mostly Cloudy
8:56 PM 64.9 °F 59.0 °F 81% 30.11 in 10.0 mi SE 5.8 mph - N/A   Partly Cloudy
9:56 PM 62.1 °F 57.9 °F 86% 30.14 in 10.0 mi WSW 3.5 mph - N/A   Mostly Cloudy
10:56 PM 62.1 °F 59.0 °F 90% 30.14 in 10.0 mi Calm Calm - N/A   Scattered Clouds
11:56 PM 60.1 °F 57.0 °F 90% 30.14 in 10.0 mi Calm Calm - N/A   Overcast